Regional Weather Roundup
Issued by NWS Albany, NY

Home | Current Version | Previous Version | Text Only | Print | Product List | Glossary On
Versions: 1 2 3 4 5 6 7 8 9 10 11 12 13 14 15 16 17 18 19 20 21 22 23 24 25 26 27 28 29 30 31 32 33 34 35 36 37 38 39 40 41 42 43 44 45 46 47 48 49 50
000
ASUS41 KALY 011110
RWRALY

NEW YORK STATE HOURLY WEATHER ROUNDUP
NATIONAL WEATHER SERVICE ALBANY NY
700 AM EDT SUN MAY 01 2016

NOTE: "FAIR" INDICATES FEW OR NO CLOUDS BELOW 12,000 FEET WITH NO
SIGNIFICANT WEATHER AND/OR NO OBSTRUCTIONS TO VISIBILITY.

NYZ032-033-038>043-046>054-057>066-NYZ062>081-082-084-011200-
EAST


CITY           SKY/WX    TMP DP  RH WIND       PRES   REMARKS
ALBANY         LGT RAIN  51  35  54 S7        30.18R
GLENS FALLS    CLOUDY    46  33  60 CALM      30.19R
POUGHKEEPSIE   CLOUDY    50  39  66 CALM      30.19R
NEWBURGH       CLOUDY    48  41  76 VRB5      30.20R
MONTGOMERY     LGT RAIN  48  42  80 CALM      30.19R
WHITE PLAINS   CLOUDY    46  39  76 E5        30.20R
ISLIP          CLOUDY    47  40  76 E7        30.21S
NEW YORK CITY  CLOUDY    50  37  61 SE6       30.21R
CENTRAL PARK   CLOUDY    50  37  61 CALM      30.23R
$$

NYZ005>009-017-018-044>046-055-056-011200-
CENTRAL


CITY           SKY/WX    TMP DP  RH WIND       PRES   REMARKS
FULTON         LGT RAIN  51  47  86 VRB5      30.07F
SYRACUSE       LGT RAIN  48  47  96 E9        30.07F
ROME           LGT RAIN  47  44  90 E9        30.13S
ELMIRA         LGT RAIN  49  44  83 VRB5      30.02F
BINGHAMTON     LGT RAIN  42  42 100 S12       30.08R FOG
MONTICELLO     CLOUDY    41  37  87 CALM      30.18S
$$

NYZ026>034-041>043-087-011200-
NORTH


CITY           SKY/WX    TMP DP  RH WIND       PRES   REMARKS
WATERTOWN      LGT RAIN  48  46  93 E5        30.10S FOG
FORT DRUM      NOT AVBL
MASSENA        CLOUDY    47  21  35 NE10      30.16S
SARANAC LAKE   CLOUDY    40  25  55 CALM      30.12F
PLATTSBURGH    CLOUDY    42  29  59 CALM      30.17S
$$

NYZ001>004-010>016-019>021-085-011200-
WEST


CITY           SKY/WX    TMP DP  RH WIND       PRES   REMARKS
NIAGARA FALLS  LGT RAIN  49  45  86 E15       29.93  FOG
BUFFALO        LGT RAIN  49  46  90 E10       29.94F FOG
DUNKIRK        LGT RAIN  49  47  93 E10       29.90F
JAMESTOWN      CLOUDY    46  45  93 S6        29.90S
WELLSVILLE     LGT RAIN  47  45  93 SE7       29.95F FOG
ROCHESTER      LGT RAIN  49  47  93 E10       30.00F FOG
PENN YAN       LGT RAIN  49  45  86 E9        30.01F FOG
$$

             KEY
       WCI = WIND CHILL INDEX
       VSB = VISIBILITY
       HX  = HEAT INDEX
$$



USA.gov is the U.S. government's official web portal to all federal, state and local government web resources and services.